• In Russia
  • List of Countries
  • For 7 days
  • Water Temperature
  • Satellite Maps
  • Weather Map
  • Weather Widgets
  • user-avatar
    Login

    Hourly Weather Townsville

    Today, 23 February, Saturday

    Time Temperature Precipitation Wind Pressure Humidity
    00:00 +27°C° 0 mm 2 mps 750 mmHg 87%
    01:00 +27°C° 0 mm 2 mps 750 mmHg 87%
    02:00 +27°C° 0 mm 3 mps 750 mmHg 87%
    03:00 +27°C° 0 mm 3 mps 750 mmHg 87%
    04:00 +27°C° 0 mm 3 mps 750 mmHg 88%
    05:00 +27°C° 0.3 mm 3 mps 750 mmHg 87%
    06:00 +28°C° 0.3 mm 3 mps 750 mmHg 87%
    07:00 +28°C° 0.3 mm 3 mps 751 mmHg 86%
    08:00 +29°C° 0.5 mm 3 mps 751 mmHg 81%
    09:00 +30°C° 0.5 mm 3 mps 751 mmHg 76%
    10:00 +30°C° 0 mm 4 mps 751 mmHg 72%
    11:00 +32°C° 0.3 mm 4 mps 751 mmHg 68%
    12:00 +33°C° 0.3 mm 4 mps 751 mmHg 64%
    13:00 +33°C° 0.3 mm 4 mps 751 mmHg 60%
    14:00 +33°C° 0.1 mm 4 mps 751 mmHg 62%
    15:00 +33°C° 0.1 mm 4 mps 751 mmHg 64%
    16:00 +32°C° 0 mm 4 mps 751 mmHg 67%
    17:00 +30°C° 0 mm 4 mps 751 mmHg 71%
    18:00 +29°C° 0 mm 4 mps 751 mmHg 75%
    19:00 +28°C° 0 mm 4 mps 752 mmHg 79%
    20:00 +28°C° 0.2 mm 4 mps 752 mmHg 81%
    21:00 +28°C° 0.2 mm 4 mps 752 mmHg 83%
    22:00 +28°C° 0 mm 4 mps 753 mmHg 83%
    23:00 +28°C° 0.1 mm 4 mps 752 mmHg 84%

    Tomorrow, 24 February, Sunday

    Time Temperature Precipitation Wind Pressure Humidity
    00:00 +28°C° 0.1 mm 4 mps 752 mmHg 85%
    01:00 +27°C° 0.1 mm 4 mps 752 mmHg 86%
    02:00 +27°C° 2.6 mm 4 mps 752 mmHg 86%
    03:00 +27°C° 2.6 mm 4 mps 752 mmHg 86%
    04:00 +26°C° 2.6 mm 3 mps 752 mmHg 86%
    05:00 +26°C° 1.2 mm 4 mps 753 mmHg 85%
    06:00 +27°C° 1.2 mm 4 mps 753 mmHg 83%
    07:00 +27°C° 1.2 mm 4 mps 754 mmHg 82%
    08:00 +28°C° 0.3 mm 4 mps 754 mmHg 77%
    09:00 +29°C° 0.3 mm 4 mps 754 mmHg 72%
    10:00 +30°C° 0.3 mm 5 mps 754 mmHg 67%
    11:00 +30°C° 0.8 mm 5 mps 754 mmHg 68%
    12:00 +30°C° 0.8 mm 5 mps 754 mmHg 69%
    13:00 +30°C° 0.8 mm 5 mps 753 mmHg 70%
    14:00 +30°C° 1.3 mm 5 mps 753 mmHg 71%
    15:00 +30°C° 1.3 mm 5 mps 753 mmHg 73%
    16:00 +29°C° 1.3 mm 5 mps 753 mmHg 74%
    17:00 +29°C° 0.2 mm 5 mps 753 mmHg 76%
    18:00 +28°C° 0.2 mm 5 mps 753 mmHg 79%
    19:00 +27°C° 0.2 mm 5 mps 753 mmHg 81%
    20:00 +27°C° 0 mm 5 mps 754 mmHg 81%
    21:00 +27°C° 0 mm 5 mps 754 mmHg 82%
    22:00 +27°C° 0 mm 4 mps 755 mmHg 82%
    23:00 +27°C° 0 mm 5 mps 755 mmHg 82%

    Day after tomorrow, 25 February, Monday

    Time Temperature Precipitation Wind Pressure Humidity
    00:00 +26°C° 0 mm 5 mps 755 mmHg 82%
    01:00 +26°C° 0 mm 5 mps 754 mmHg 82%
    02:00 +26°C° 0.1 mm 5 mps 754 mmHg 83%
    03:00 +26°C° 0.1 mm 5 mps 754 mmHg 84%
    04:00 +25°C° 0.1 mm 5 mps 754 mmHg 84%
    05:00 +25°C° 0 mm 5 mps 754 mmHg 84%
    06:00 +25°C° 0 mm 5 mps 755 mmHg 84%
    07:00 +25°C° 0 mm 5 mps 755 mmHg 84%
    08:00 +27°C° 0 mm 5 mps 755 mmHg 78%
    09:00 +28°C° 0 mm 5 mps 756 mmHg 72%
    10:00 +29°C° 0 mm 5 mps 756 mmHg 66%
    11:00 +30°C° 0 mm 5 mps 755 mmHg 62%
    12:00 +32°C° 0 mm 5 mps 755 mmHg 57%
    13:00 +33°C° 0 mm 5 mps 754 mmHg 53%
    14:00 +32°C° 0 mm 5 mps 754 mmHg 57%
    15:00 +32°C° 0 mm 5 mps 753 mmHg 60%
    16:00 +30°C° 0 mm 6 mps 753 mmHg 63%
    17:00 +29°C° 0 mm 6 mps 753 mmHg 66%
    18:00 +29°C° 0 mm 6 mps 753 mmHg 69%
    19:00 +28°C° 0 mm 6 mps 754 mmHg 72%
    20:00 +27°C° 0 mm 6 mps 754 mmHg 73%
    21:00 +27°C° 0 mm 6 mps 755 mmHg 73%
    22:00 +27°C° 0 mm 6 mps 755 mmHg 74%
    23:00 +26°C° 0 mm 6 mps 755 mmHg 75%

    26 February, Tuesday

    Time Temperature Precipitation Wind Pressure Humidity
    00:00 +26°C° 0 mm 6 mps 755 mmHg 77%
    01:00 +25°C° 0 mm 5 mps 754 mmHg 78%
    02:00 +25°C° 0 mm 5 mps 754 mmHg 80%
    03:00 +25°C° 0 mm 5 mps 754 mmHg 81%
    04:00 +25°C° 0 mm 5 mps 753 mmHg 83%
    05:00 +25°C° 0 mm 5 mps 754 mmHg 82%
    06:00 +25°C° 0 mm 5 mps 754 mmHg 82%
    07:00 +23°C° 0 mm 5 mps 754 mmHg 82%
    08:00 +26°C° 0 mm 5 mps 754 mmHg 76%
    09:00 +28°C° 0 mm 5 mps 755 mmHg 70%
    10:00 +29°C° 0 mm 5 mps 755 mmHg 64%
    11:00 +30°C° 0.1 mm 5 mps 754 mmHg 61%
    12:00 +32°C° 0.1 mm 5 mps 754 mmHg 57%
    13:00 +33°C° 0.1 mm 5 mps 753 mmHg 54%
    14:00 +32°C° 0.2 mm 5 mps 753 mmHg 58%
    15:00 +32°C° 0.2 mm 6 mps 752 mmHg 61%
    16:00 +30°C° 0.2 mm 6 mps 752 mmHg 65%
    17:00 +29°C° 0.1 mm 6 mps 752 mmHg 68%
    18:00 +28°C° 0.1 mm 5 mps 753 mmHg 71%
    19:00 +27°C° 0.1 mm 5 mps 753 mmHg 74%
    20:00 +27°C° 0 mm 5 mps 753 mmHg 75%
    21:00 +27°C° 0 mm 6 mps 754 mmHg 75%
    22:00 +26°C° 0 mm 6 mps 754 mmHg 75%
    23:00 +26°C° 0 mm 6 mps 754 mmHg 76%

    27 February, Wednesday

    Time Temperature Precipitation Wind Pressure Humidity
    00:00 +25°C° 0 mm 5 mps 754 mmHg 77%
    01:00 +25°C° 0 mm 5 mps 754 mmHg 78%
    02:00 +25°C° 0 mm 5 mps 753 mmHg 80%
    03:00 +23°C° 0 mm 5 mps 753 mmHg 81%
    04:00 +23°C° 0 mm 5 mps 752 mmHg 82%
    05:00 +23°C° 0 mm 5 mps 753 mmHg 83%
    06:00 +25°C° 0 mm 5 mps 753 mmHg 83%
    07:00 +25°C° 0 mm 5 mps 754 mmHg 83%
    08:00 +26°C° 0 mm 5 mps 754 mmHg 77%
    09:00 +28°C° 0 mm 6 mps 754 mmHg 70%
    10:00 +30°C° 0 mm 6 mps 754 mmHg 63%
    11:00 +30°C° 0 mm 6 mps 754 mmHg 60%
    12:00 +32°C° 0 mm 6 mps 753 mmHg 57%
    13:00 +33°C° 0 mm 6 mps 753 mmHg 54%
    14:00 +32°C° 0.1 mm 6 mps 752 mmHg 57%
    15:00 +32°C° 0.1 mm 6 mps 752 mmHg 59%
    16:00 +32°C° 0.1 mm 6 mps 751 mmHg 61%
    17:00 +29°C° 0.1 mm 6 mps 752 mmHg 66%
    18:00 +28°C° 0.1 mm 6 mps 752 mmHg 70%
    19:00 +27°C° 0.1 mm 6 mps 753 mmHg 75%
    20:00 +27°C° 0 mm 6 mps 753 mmHg 76%
    21:00 +27°C° 0 mm 6 mps 754 mmHg 76%
    22:00 +26°C° 0 mm 6 mps 754 mmHg 76%
    23:00 +26°C° 0 mm 6 mps 754 mmHg 78%

    28 February, Thursday

    Time Temperature Precipitation Wind Pressure Humidity
    00:00 +24°C° 0 mm 6 mps 754 mmHg 79%
    01:00 +25°C° 0 mm 5 mps 753 mmHg 81%
    02:00 +25°C° 0 mm 5 mps 753 mmHg 81%
    03:00 +23°C° 0 mm 5 mps 753 mmHg 82%
    04:00 +23°C° 0 mm 5 mps 753 mmHg 83%
    05:00 +23°C° 0 mm 5 mps 753 mmHg 83%
    06:00 +25°C° 0 mm 5 mps 753 mmHg 83%
    07:00 +24°C° 0 mm 6 mps 754 mmHg 83%
    08:00 +26°C° 0.1 mm 6 mps 754 mmHg 78%
    09:00 +27°C° 0.1 mm 6 mps 754 mmHg 74%
    10:00 +29°C° 0.1 mm 6 mps 754 mmHg 70%
    11:00 +29°C° 0.3 mm 6 mps 754 mmHg 68%
    12:00 +29°C° 0.3 mm 6 mps 753 mmHg 67%
    13:00 +29°C° 0.3 mm 6 mps 753 mmHg 65%
    14:00 +30°C° 0 mm 6 mps 752 mmHg 63%
    15:00 +30°C° 0 mm 7 mps 752 mmHg 62%
    16:00 +30°C° 0 mm 7 mps 752 mmHg 60%
    17:00 +29°C° 0 mm 7 mps 752 mmHg 64%
    18:00 +28°C° 0 mm 6 mps 753 mmHg 69%
    19:00 +27°C° 0 mm 6 mps 753 mmHg 73%
    20:00 +27°C° 0 mm 6 mps 753 mmHg 74%
    21:00 +27°C° 0 mm 6 mps 754 mmHg 76%
    22:00 +26°C° 0 mm 6 mps 754 mmHg 77%
    23:00 +26°C° 0 mm 6 mps 754 mmHg 78%
    Show more